[[{"header":{"parameterUnit":"m.s-1","parameterCategory":1,"la1":30.2991,"la2":30.254,"lo1":-89.0895,"lo2":-89.0444,"dy":0.0017,"dx":0.0017,"nx":28,"ny":28,"refTime":"2024-05-05T21:00:00:Z","depth":0,"parameterNumber":2,"parameterNumberName":"U-component_of_WINDS"},"data":[0,0,0,0,0,0,0,0,0,0,0,0,0,0,0,0,0,0,0,0,0,0,0,0,0,0,0,0,0,0,0,0,0,0,0,0,0,0,0,0,0,0,0,0,0,0,0,0,0,0,0,0,0,0,0,0,0,0,-0.6229,-0.6228,0,-0.615,-0.6149,-0.6148,-0.612,-0.612,-0.6121,-0.6121,-0.6043,-0.6041,-0.6038,0,0,0,0,0,0,0,0,0,0,0,0,0,-0.6358,-0.6355,-0.6229,-0.6228,-0.6227,-0.615,-0.6149,-0.6148,-0.612,-0.612,-0.6121,-0.6121,-0.6044,-0.6041,-0.6038,0,0,0,0,0,0,0,0,0,0,0,0,0,-0.6293,-0.6355,-0.6229,-0.6203,-0.62,-0.615,-0.6149,-0.6148,-0.612,-0.612,-0.6121,-0.6121,-0.6045,-0.6041,-0.6038,-0.6008,0,0,-0.6027,-0.6026,0,0,0,0,0,0,0,0,-0.6296,-0.6288,-0.6208,-0.6205,-0.6202,-0.6145,-0.6166,-0.6101,-0.612,-0.6151,-0.6121,-0.6121,-0.6077,-0.6071,-0.6055,-0.6005,-0.6001,-0.6027,-0.6025,-0.6023,-0.6022,0,0,0,0,0,0,0,-0.6301,-0.6291,-0.6198,-0.6207,-0.6203,-0.6197,-0.6188,-0.6154,-0.6113,-0.6148,-0.6146,-0.6137,-0.6075,-0.6059,-0.6053,-0.6,-0.6027,-0.6024,-0.6022,-0.602,-0.5922,-0.5922,0,0,0,0,0,0,-0.6309,-0.6295,-0.62,-0.6195,-0.6251,-0.6194,-0.6185,-0.6163,-0.6113,-0.6105,-0.6136,-0.6136,-0.6064,-0.6057,-0.605,-0.6012,-0.6023,-0.602,-0.6018,-0.5923,-0.5922,-0.5922,0,0,0,0,0,0,-0.6312,-0.6301,-0.6203,-0.6245,-0.6232,-0.6192,-0.6168,-0.6161,-0.6145,-0.6104,-0.6097,-0.6127,-0.6064,-0.6055,-0.6019,-0.6009,-0.6018,-0.6015,-0.5923,-0.5923,-0.5922,-0.5937,0,0,0,0,0,0,-0.6316,-0.6302,-0.629,-0.6244,-0.623,-0.6172,-0.6167,-0.6159,-0.6138,-0.6137,-0.6093,-0.6086,-0.6064,-0.6024,-0.6015,-0.6005,-0.6013,-0.5924,-0.5923,-0.5922,-0.5937,-0.5937,-0.5936,0,0,0,0,0,-0.6321,-0.6298,-0.6289,-0.6278,-0.6213,-0.6172,-0.6163,-0.6137,-0.6138,-0.6125,-0.61,-0.6088,-0.6012,-0.6021,-0.6011,-0.5999,-0.5925,-0.5923,-0.5922,-0.5937,-0.5937,-0.5936,0,0,0,0,0,0,-0.6343,-0.6291,-0.6281,-0.6243,-0.6212,-0.6167,-0.615,-0.6138,-0.6107,-0.6107,-0.6077,-0.6067,-0.6033,-0.6013,-0.6023,-0.5968,-0.5968,-0.5965,-0.5982,-0.5982,-0.5981,-0.5987,-0.601,0,0,0,0,0,-0.6344,-0.6314,-0.627,-0.624,-0.6225,-0.6191,-0.6172,-0.6154,-0.6122,-0.6109,-0.608,-0.605,-0.6019,-0.5999,-0.5969,-0.5934,-0.5925,-0.5921,-0.5921,-0.5921,-0.5918,-0.5899,-0.5897,-0.5918,-0.5918,-0.5918,0,0,-0.6345,-0.6312,-0.6295,-0.6244,-0.6218,-0.6188,-0.618,-0.6149,-0.6127,-0.6104,-0.6068,-0.6046,-0.601,-0.5975,-0.5958,-0.5956,-0.5911,-0.5919,-0.592,-0.5917,-0.5898,-0.5896,-0.5894,-0.5917,-0.5917,-0.5917,0,0,-0.6331,-0.6303,-0.6275,-0.6249,-0.621,-0.6187,-0.6181,-0.6138,-0.6122,-0.6085,-0.6068,-0.6042,-0.599,-0.5965,-0.5946,-0.5924,-0.5912,-0.5915,-0.5913,-0.5894,-0.5893,-0.5891,-0.5883,-0.5881,-0.5912,-0.5912,-0.5912,0,-0.6337,-0.629,-0.6263,-0.6232,-0.6211,-0.6188,-0.6161,-0.6137,-0.6091,-0.6077,-0.6076,-0.601,-0.5985,-0.5943,-0.5938,-0.5923,-0.5915,-0.5919,-0.5895,-0.5893,-0.5891,-0.5884,-0.5881,-0.5913,-0.5913,-0.5913,-0.5913,0,-0.63,-0.6268,-0.625,-0.6205,-0.6181,-0.6153,-0.6122,-0.6102,-0.6087,-0.6065,-0.6028,-0.5997,-0.596,-0.5949,-0.5934,-0.5906,-0.5906,-0.5901,-0.59,-0.589,-0.5883,-0.5879,-0.5914,-0.5914,-0.5913,-0.5913,0,0,-0.6297,-0.6236,-0.623,-0.621,-0.6165,-0.6141,-0.6112,-0.6075,-0.6058,-0.6027,-0.6003,-0.596,-0.5954,-0.5932,-0.5915,-0.5899,-0.5884,-0.5896,-0.5895,-0.5895,-0.5851,-0.5855,-0.5852,-0.5877,-0.5876,-0.5875,-0.5854,0,-0.6277,-0.6222,-0.6197,-0.6154,-0.6125,-0.6104,-0.6079,-0.6049,-0.6028,-0.6002,-0.5979,-0.5949,-0.5944,-0.5931,-0.5914,-0.5889,-0.5875,-0.5891,-0.5854,-0.5853,-0.5863,-0.5848,-0.5852,-0.5833,-0.5851,-0.585,-0.585,0,-0.6245,-0.6213,-0.6167,-0.6127,-0.6113,-0.6091,-0.6056,-0.603,-0.5997,-0.5983,-0.5959,-0.5943,-0.5913,-0.5914,-0.5873,-0.5884,-0.5868,-0.5854,-0.5853,-0.5848,-0.585,-0.5842,-0.5826,-0.5823,-0.5845,-0.5845,-0.5846,0,-0.6247,-0.6193,-0.6159,-0.6142,-0.6093,-0.6078,-0.6058,-0.6025,-0.6005,-0.5974,-0.5961,-0.5928,-0.591,-0.5885,-0.5861,-0.5865,-0.5822,-0.5822,-0.581,-0.5811,-0.5802,-0.5802,-0.5783,-0.5792,-0.5792,-0.5792,-0.5792,0,-0.6227,-0.62,-0.6159,-0.6138,-0.6107,-0.6079,-0.605,-0.6028,-0.5999,-0.5974,-0.5955,-0.5932,-0.5902,-0.5876,-0.5857,-0.5826,-0.5818,-0.5806,-0.5802,-0.5808,-0.5809,-0.5796,-0.5797,-0.5792,-0.5792,-0.5792,-0.5792,0,-0.6224,-0.6195,-0.6156,-0.6114,-0.6103,-0.6082,-0.6046,-0.6026,-0.6004,-0.5973,-0.5964,-0.5931,-0.5899,-0.5872,-0.5831,-0.5818,-0.5786,-0.5781,-0.5797,-0.5794,-0.5784,-0.5785,-0.5755,-0.5749,-0.5763,-0.5763,-0.5763,0,-0.6213,-0.6191,-0.6146,-0.6127,-0.6107,-0.6077,-0.6056,-0.6029,-0.6008,-0.5969,-0.5954,-0.592,-0.5892,-0.5843,-0.5816,-0.5784,-0.5778,-0.5769,-0.5773,-0.578,-0.5777,-0.5779,-0.5777,-0.5769,-0.5769,-0.5769,-0.5769,0,-0.6195,-0.6182,-0.6152,-0.6117,-0.6092,-0.6064,-0.6035,-0.6022,-0.5989,-0.5967,-0.5934,-0.5912,-0.587,-0.5837,-0.5803,-0.5783,-0.5771,-0.5768,-0.5764,-0.5769,-0.5779,-0.5774,-0.5796,-0.5769,-0.5769,-0.5769,-0.5769,-0.5769,-0.6187,-0.6167,-0.6132,-0.61,-0.6075,-0.6049,-0.6027,-0.6003,-0.5974,-0.5937,-0.5923,-0.589,-0.5858,-0.5811,-0.5791,-0.5766,-0.5764,-0.5758,-0.5756,-0.5755,-0.5755,-0.5784,-0.5759,-0.5759,-0.5759,-0.5759,-0.5759,0,-0.6169,-0.6146,-0.6116,-0.6076,-0.605,-0.604,-0.6008,-0.5988,-0.5958,-0.593,-0.5902,-0.5865,-0.5834,-0.5804,-0.5772,-0.5757,-0.575,-0.5749,-0.575,-0.5746,-0.5759,-0.5766,-0.5755,-0.5755,-0.5755,-0.5755,-0.5755,-0.5755,-0.6156,-0.6122,-0.6105,-0.6059,-0.6036,-0.6002,-0.5984,-0.596,-0.5937,-0.5896,-0.5869,-0.585,-0.5822,-0.5787,-0.5759,-0.5751,-0.574,-0.574,-0.5731,-0.5744,-0.5745,-0.5745,-0.5752,-0.5738,-0.5738,-0.572,-0.572,-0.572]},{"header":{"parameterUnit":"m.s-1","parameterCategory":1,"la1":30.2991,"la2":30.254,"lo1":-89.0895,"lo2":-89.0444,"dy":0.0017,"dx":0.0017,"nx":28,"ny":28,"refTime":"2024-05-05T21:00:00:Z","depth":0,"parameterNumber":3,"parameterNumberName":"V-component_of_WINDS"},"data":[0,0,0,0,0,0,0,0,0,0,0,0,0,0,0,0,0,0,0,0,0,0,0,0,0,0,0,0,0,0,0,0,0,0,0,0,0,0,0,0,0,0,0,0,0,0,0,0,0,0,0,0,0,0,0,0,0,0,5.8687,5.8687,0,5.8701,5.8701,5.8701,5.8664,5.8662,5.8661,5.866,5.8672,5.8673,5.8675,0,0,0,0,0,0,0,0,0,0,0,0,0,5.8627,5.8628,5.8687,5.8687,5.8687,5.8701,5.8701,5.8701,5.8664,5.8662,5.8661,5.866,5.8672,5.8673,5.8675,0,0,0,0,0,0,0,0,0,0,0,0,0,5.8648,5.8629,5.8687,5.867,5.8669,5.8701,5.8701,5.8701,5.8664,5.8662,5.8661,5.8659,5.8671,5.8673,5.8675,5.8723,0,0,5.8682,5.8682,0,0,0,0,0,0,0,0,5.8647,5.865,5.8673,5.8672,5.867,5.8679,5.8684,5.8708,5.8665,5.8666,5.866,5.8658,5.8676,5.8677,5.8684,5.8723,5.8724,5.8682,5.8683,5.8684,5.8685,0,0,0,0,0,0,0,5.8646,5.865,5.8692,5.8673,5.8672,5.8662,5.8663,5.8689,5.868,5.8666,5.8663,5.8665,5.8675,5.8682,5.8684,5.8724,5.8682,5.8684,5.8685,5.8686,5.8805,5.8807,0,0,0,0,0,0,5.8647,5.8649,5.8692,5.8693,5.8654,5.8664,5.8666,5.8678,5.868,5.8679,5.8667,5.8664,5.8679,5.8681,5.8684,5.8741,5.8684,5.8686,5.8687,5.8803,5.8806,5.8808,0,0,0,0,0,0,5.8645,5.8651,5.8691,5.867,5.8675,5.8667,5.8681,5.8679,5.8686,5.8681,5.8679,5.8676,5.8678,5.8681,5.8714,5.8741,5.8687,5.8689,5.8801,5.8804,5.8807,5.8855,0,0,0,0,0,0,5.8644,5.8651,5.8669,5.8671,5.8676,5.8722,5.8683,5.868,5.869,5.8686,5.8689,5.8687,5.8676,5.8711,5.8716,5.8743,5.869,5.8799,5.8803,5.8806,5.8851,5.8859,5.8866,0,0,0,0,0,5.8642,5.8681,5.867,5.8675,5.8699,5.8724,5.8726,5.8714,5.8692,5.8711,5.8707,5.8687,5.8737,5.8715,5.872,5.8748,5.8797,5.8801,5.8806,5.8848,5.8858,5.8866,0,0,0,0,0,0,5.8681,5.8681,5.8669,5.871,5.8717,5.8717,5.874,5.8724,5.8737,5.8733,5.8716,5.8717,5.8753,5.8754,5.8729,5.8795,5.8763,5.8769,5.8793,5.8803,5.881,5.881,5.8692,0,0,0,0,0,5.8695,5.8716,5.8714,5.875,5.8755,5.8747,5.8757,5.8747,5.8754,5.8756,5.8755,5.8762,5.8779,5.8791,5.8806,5.8851,5.8851,5.8873,5.888,5.8886,5.8892,5.8916,5.8926,5.8822,5.8822,5.8822,0,0,5.8723,5.8725,5.8739,5.8758,5.8763,5.8785,5.875,5.8774,5.879,5.876,5.8792,5.8791,5.8797,5.8837,5.8854,5.8838,5.892,5.8892,5.8897,5.8899,5.8922,5.8932,5.894,5.8825,5.8824,5.8824,0,0,5.8785,5.8789,5.8821,5.8826,5.8834,5.8829,5.8836,5.8839,5.8838,5.887,5.8848,5.8867,5.8897,5.8903,5.8909,5.8976,5.8958,5.8981,5.9021,5.9046,5.9054,5.9061,5.9086,5.9095,5.8986,5.8987,5.8987,0,5.8819,5.8852,5.8838,5.8865,5.8874,5.8849,5.8881,5.8887,5.8899,5.8906,5.8888,5.8926,5.8928,5.897,5.8986,5.8992,5.9001,5.8981,5.9054,5.9061,5.9067,5.9091,5.91,5.8989,5.8989,5.8989,5.8988,0,5.8893,5.8916,5.8941,5.8955,5.8967,5.8996,5.8987,5.9001,5.899,5.8986,5.902,5.9022,5.9038,5.9047,5.9036,5.9087,5.9077,5.9057,5.9025,5.908,5.9102,5.9111,5.8993,5.8992,5.8992,5.8991,0,0,5.898,5.8988,5.8997,5.9004,5.9012,5.9029,5.9057,5.9074,5.9087,5.9096,5.9119,5.9146,5.9128,5.9136,5.9125,5.9146,5.92,5.9123,5.9123,5.9139,5.9258,5.9274,5.9284,5.9188,5.919,5.9191,5.9258,0,5.9043,5.9093,5.9082,5.913,5.9152,5.9129,5.9154,5.9161,5.9159,5.9176,5.9173,5.9193,5.9167,5.9172,5.9192,5.919,5.9224,5.9184,5.921,5.9211,5.921,5.9296,5.9312,5.9375,5.9266,5.9267,5.9268,0,5.9123,5.9137,5.9188,5.9194,5.9202,5.9225,5.924,5.9257,5.9265,5.9262,5.9272,5.9257,5.9285,5.9253,5.9291,5.9265,5.9275,5.9275,5.9277,5.9279,5.9244,5.9301,5.9394,5.9404,5.9282,5.928,5.928,0,5.9183,5.9214,5.925,5.9256,5.9263,5.9279,5.9283,5.9289,5.93,5.9313,5.9321,5.9337,5.9345,5.9358,5.9348,5.9325,5.9388,5.9355,5.9387,5.9387,5.9401,5.9401,5.9498,5.9407,5.9407,5.9406,5.9406,0,5.9254,5.9287,5.9277,5.9299,5.9335,5.9322,5.9358,5.9358,5.9364,5.9386,5.9366,5.9386,5.9372,5.9391,5.9383,5.9417,5.942,5.9419,5.9416,5.9421,5.9421,5.9428,5.9423,5.9409,5.9408,5.9408,5.9407,0,5.9328,5.9322,5.9359,5.9364,5.9366,5.9392,5.9395,5.9415,5.9412,5.9439,5.9445,5.9439,5.9461,5.9452,5.9474,5.9469,5.9513,5.9504,5.9511,5.9509,5.9542,5.9539,5.9647,5.9661,5.956,5.9561,5.9561,0,5.9374,5.9399,5.9407,5.942,5.9426,5.9447,5.9459,5.9448,5.9461,5.9473,5.9492,5.9512,5.9527,5.9562,5.956,5.9577,5.9569,5.9606,5.9572,5.9576,5.9571,5.957,5.9573,5.9613,5.9614,5.9615,5.9616,0,5.9458,5.9455,5.9473,5.9492,5.9507,5.952,5.9532,5.9544,5.9533,5.9549,5.9571,5.9583,5.9607,5.9627,5.9643,5.9646,5.963,5.9627,5.9635,5.9641,5.9644,5.9644,5.953,5.9624,5.9624,5.9623,5.9623,5.9622,5.952,5.9542,5.9551,5.9573,5.9581,5.9592,5.9612,5.9612,5.9631,5.965,5.9642,5.9668,5.9676,5.9695,5.97,5.972,5.9706,5.9718,5.9721,5.9724,5.9729,5.964,5.9723,5.9723,5.9722,5.9722,5.9722,0,5.9604,5.9609,5.9629,5.9647,5.9664,5.9649,5.9661,5.9676,5.97,5.9709,5.9725,5.9751,5.9771,5.9771,5.9789,5.9805,5.9798,5.981,5.981,5.9811,5.9741,5.9732,5.9816,5.9816,5.9816,5.9816,5.9816,5.9816,5.965,5.9686,5.9684,5.9724,5.9728,5.9755,5.9763,5.9774,5.9781,5.9812,5.9829,5.9829,5.9834,5.9853,5.9871,5.987,5.9878,5.9893,5.989,5.9825,5.9815,5.9807,5.9798,5.9895,5.9895,5.9959,5.9959,5.996]}]]